Regional Weather Roundup
Issued by NWS

Home | Current Version | Previous Version | Text Only | Print | Product List | Glossary On
Versions: 1 2 3 4 5 6 7 8 9 10 11 12 13 14 15 16 17 18 19 20 21 22 23 24 25 26 27 28 29 30 31 32 33 34 35 36 37 38 39 40 41 42 43 44 45 46 47 48 49 50
000
ASUS43 KTOP 220508
RWRKS

WEATHER ROUNDUP FOR KANSAS
NATIONAL WEATHER SERVICE GOODLAND KS
1200 AM CDT TUE JUL 22 2014

NOTE:  "FAIR" INDICATES FEW OR NO CLOUDS BELOW 12,000 FEET WITH NO
SIGNIFICANT WEATHER AND/OR OBSTRUCTIONS TO VISIBILITY.

KSZ001>006-013>018-027>032-041>047-220600-
NORTHWEST KANSAS

CITY           SKY/WX    TMP DP  RH WIND       PRES   REMARKS
GOODLAND       CLEAR     71  63  75 S16       30.10R
HAYS           CLOUDY    81  63  54 W9        29.98R
HILL CITY      CLOUDY    81  62  52 W10       29.97S
RUSSELL        CLOUDY    82  71  69 S14       29.95R
$$

KSZ061>065-074>080-084>089-220600-
SOUTHWEST KANSAS

CITY           SKY/WX    TMP DP  RH WIND       PRES   REMARKS
DODGE CITY     LGT RAIN  74  64  71 W17       30.06F
ELKHART          N/A     72  62  71 E15         N/A
GARDEN CITY    CLOUDY    71  63  75 S22G29    30.04F
GREAT BEND     CLOUDY    82  70  65 S14       29.96F
LIBERAL        CLOUDY    72  64  78 W12       30.20S THUNDER
PRATT          CLOUDY    79  68  69 S12       30.04S
$$

KSZ066>073-081>083-090>101-220600-
SOUTHEAST KANSAS

CITY           SKY/WX    TMP DP  RH WIND       PRES   REMARKS
CHANUTE        CLEAR     76  73  91 S6        30.04R
COFFEYVILLE    PTCLDY    77  73  87 S5        30.03R FOG
HUTCHINSON     CLOUDY    83  73  72 S12       30.00F
MEDICINE LODGE   N/A     81  71  71 S7        30.01S
NEWTON         CLOUDY    82  70  65 S14       30.04F
PARSONS        PTCLDY    77  72  84 S5        30.04R
WICHITA INTL   CLOUDY    81  75  82 S13       30.01F
WICHITA JABRA  CLOUDY    82  75  79 S13       30.01F
WICHITA MCCONL CLOUDY    82  79  92 S14       30.02F
WINFIELD       CLOUDY    79  76  90 S7        30.04S
$$

KSZ007>012-019>026-033>040-048>060-102>105-220600-
NORTHEAST KANSAS

CITY           SKY/WX    TMP DP  RH WIND       PRES   REMARKS
CONCORDIA      CLOUDY    86  68  54 S17       29.95R
EMPORIA        MOCLDY    76  73  91 S10       30.01S
LAWRENCE       PTCLDY    83  74  74 S9        29.99R
MANHATTAN      MOCLDY    84  73  69 S10       29.96S
MARYSVILLE     PTCLDY    82  73  74 S10       29.94S
OLATHE IND     PTCLDY    80  73  79 S12       30.01R
OLATHE EXE     PTCLDY    78  73  84 SW8       30.01R
SALINA         CLOUDY    86  72  62 S13       29.96F
TOPEKA BILLARD PTCLDY    84  75  74 S9        29.98R
TOPEKA FORBES  PTCLDY    82  74  76 S10       29.99R
$$


USA.gov is the U.S. government's official web portal to all federal, state and local government web resources and services.